Location: Beaurecueil
(43.5122°N, 5.5450°E)
Time: 00:43:30
(UTC+00:00)

COSMOS 2406 - Pass Details

Date: 18 September 2020
Orbit: 844 x 863 km, 71.0° (Epoch: 26 October)

Event Time Altitude Azimuth Distance (km) Brightness Sun altitude
Rises 20:48:02 0° 336° (NNW) 3,412 7.2 -32.1°
Reaches altitude 10° 20:50:30 10° 339° (NNW) 2,474 6.3 -32.4°
Enters shadow 20:54:20 43° 353° (N) 1,171 4.1 -32.9°
